Time,TemperatureF,DewpointF,PressureIn,WindDirection,WindDirectionDegrees,WindSpeedMPH,WindSpeedGustMPH,Humidity,HourlyPrecipIn,Conditions,Clouds,dailyrainin,SoftwareType,DateUTC
2013-06-01 00:01:00,38.0,16.0,-100.00,WNW,287,1.0,4.0,40,-99.99,,,-99.99,,2013-06-01 06:01:00,
2013-06-01 00:12:00,38.0,16.0,-100.00,WNW,287,1.0,4.0,40,-99.99,,,-99.99,,2013-06-01 06:12:00,
2013-06-01 00:22:00,39.0,17.0,-100.00,West,275,1.0,3.0,41,-99.99,,,-99.99,,2013-06-01 06:22:00,
2013-06-01 00:32:00,39.0,17.0,-100.00,West,275,1.0,3.0,41,-99.99,,,-99.99,,2013-06-01 06:32:00,
2013-06-01 00:42:00,39.0,17.0,-100.00,West,275,1.0,3.0,41,-99.99,,,-99.99,,2013-06-01 06:42:00,
2013-06-01 01:31:00,37.0,18.0,-100.00,SW,228,0.0,1.0,45,-99.99,,,-99.99,,2013-06-01 07:31:00,
2013-06-01 01:42:00,37.0,18.0,-100.00,SW,228,0.0,1.0,45,-99.99,,,-99.99,,2013-06-01 07:42:00,
2013-06-01 01:52:00,38.0,18.0,-100.00,NW,312,1.0,2.0,44,-99.99,,,-99.99,,2013-06-01 07:52:00,
2013-06-01 02:02:00,38.0,19.0,-100.00,West,272,1.0,2.0,45,-99.99,,,-99.99,,2013-06-01 08:02:00,
2013-06-01 02:11:00,38.0,19.0,-100.00,West,272,1.0,2.0,45,-99.99,,,-99.99,,2013-06-01 08:11:00,
2013-06-01 02:21:00,37.0,18.0,-100.00,WSW,245,1.0,3.0,46,-99.99,,,-99.99,,2013-06-01 08:21:00,
2013-06-01 02:32:00,37.0,19.0,-100.00,West,267,1.0,2.0,47,-99.99,,,-99.99,,2013-06-01 08:32:00,
2013-06-01 02:42:00,37.0,19.0,-100.00,West,267,1.0,2.0,47,-99.99,,,-99.99,,2013-06-01 08:42:00,
2013-06-01 02:52:00,37.0,18.0,-100.00,WNW,282,1.0,1.0,46,-99.99,,,-99.99,,2013-06-01 08:52:00,
2013-06-01 03:01:00,38.0,19.0,-100.00,WSW,252,1.0,3.0,45,-99.99,,,-99.99,,2013-06-01 09:01:00,
2013-06-01 03:12:00,38.0,19.0,-100.00,WSW,252,1.0,3.0,45,-99.99,,,-99.99,,2013-06-01 09:12:00,
2013-06-01 03:21:00,37.0,18.0,-100.00,SSW,213,1.0,2.0,46,-99.99,,,-99.99,,2013-06-01 09:21:00,
2013-06-01 03:33:00,37.0,18.0,-100.00,WSW,249,1.0,2.0,46,-99.99,,,-99.99,,2013-06-01 09:33:00,
2013-06-01 03:42:00,37.0,18.0,-100.00,WSW,249,1.0,2.0,46,-99.99,,,-99.99,,2013-06-01 09:42:00,
2013-06-01 03:53:00,37.0,18.0,-100.00,SW,222,1.0,1.0,45,-99.99,,,-99.99,,2013-06-01 09:53:00,
2013-06-01 04:02:00,37.0,18.0,-100.00,WSW,243,0.0,1.0,45,-99.99,,,-99.99,,2013-06-01 10:02:00,
2013-06-01 04:12:00,37.0,18.0,-100.00,WSW,243,0.0,1.0,45,-99.99,,,-99.99,,2013-06-01 10:12:00,
2013-06-01 04:22:00,37.0,18.0,-100.00,WSW,251,1.0,2.0,45,-99.99,,,-99.99,,2013-06-01 10:22:00,
2013-06-01 04:32:00,36.0,17.0,-100.00,SW,227,1.0,1.0,45,-99.99,,,-99.99,,2013-06-01 10:32:00,
2013-06-01 04:42:00,36.0,17.0,-100.00,SW,227,1.0,1.0,45,-99.99,,,-99.99,,2013-06-01 10:42:00,
2013-06-01 04:52:00,37.0,17.0,-100.00,WSW,255,1.0,2.0,44,-99.99,,,-99.99,,2013-06-01 10:52:00,
2013-06-01 05:02:00,36.0,17.0,-100.00,SW,215,1.0,1.0,46,-99.99,,,-99.99,,2013-06-01 11:02:00,
2013-06-01 05:11:00,36.0,17.0,-100.00,SW,215,1.0,1.0,46,-99.99,,,-99.99,,2013-06-01 11:11:00,
2013-06-01 05:21:00,36.0,17.0,-100.00,WSW,238,0.0,1.0,46,-99.99,,,-99.99,,2013-06-01 11:21:00,
2013-06-01 05:32:00,36.0,18.0,-100.00,SW,219,0.0,1.0,47,-99.99,,,-99.99,,2013-06-01 11:32:00,
2013-06-01 05:42:00,36.0,18.0,-100.00,SW,219,0.0,1.0,47,-99.99,,,-99.99,,2013-06-01 11:42:00,
2013-06-01 05:52:00,36.0,18.0,-100.00,SSW,211,1.0,1.0,48,-99.99,,,-99.99,,2013-06-01 11:52:00,
2013-06-01 06:01:00,36.0,18.0,-100.00,WSW,242,1.0,1.0,48,-99.99,,,-99.99,,2013-06-01 12:01:00,
2013-06-01 06:12:00,36.0,18.0,-100.00,WSW,242,1.0,1.0,48,-99.99,,,-99.99,,2013-06-01 12:12:00,
2013-06-01 06:21:00,36.0,18.0,-100.00,SW,214,1.0,1.0,48,-99.99,,,-99.99,,2013-06-01 12:21:00,
2013-06-01 06:32:00,35.0,18.0,-100.00,SSW,213,1.0,2.0,50,-99.99,,,-99.99,,2013-06-01 12:32:00,
2013-06-01 06:41:00,35.0,18.0,-100.00,SSW,213,1.0,2.0,50,-99.99,,,-99.99,,2013-06-01 12:41:00,
2013-06-01 06:52:00,35.0,19.0,-100.00,SSW,201,1.0,1.0,51,-99.99,,,-99.99,,2013-06-01 12:52:00,
2013-06-01 07:01:00,36.0,19.0,-100.00,SSW,198,1.0,1.0,50,-99.99,,,-99.99,,2013-06-01 13:01:00,
2013-06-01 07:11:00,36.0,19.0,-100.00,SSW,198,1.0,1.0,50,-99.99,,,-99.99,,2013-06-01 13:11:00,
2013-06-01 07:22:00,37.0,20.0,-100.00,SSW,194,1.0,1.0,50,-99.99,,,-99.99,,2013-06-01 13:22:00,
2013-06-01 07:32:00,38.0,19.0,-100.00,ENE,66,0.0,1.0,45,-99.99,,,-99.99,,2013-06-01 13:32:00,
2013-06-01 07:42:00,38.0,19.0,-100.00,ENE,66,0.0,1.0,45,-99.99,,,-99.99,,2013-06-01 13:42:00,
2013-06-01 07:52:00,39.0,16.0,-100.00,NNE,18,1.0,3.0,39,-99.99,,,-99.99,,2013-06-01 13:52:00,
2013-06-01 08:02:00,42.0,19.0,-100.00,NNE,13,0.0,1.0,39,-99.99,,,-99.99,,2013-06-01 14:02:00,
2013-06-01 08:11:00,42.0,19.0,-100.00,NNE,13,0.0,1.0,39,-99.99,,,-99.99,,2013-06-01 14:11:00,
2013-06-01 08:21:00,42.0,21.0,-100.00,NNE,23,1.0,3.0,43,-99.99,,,-99.99,,2013-06-01 14:21:00,
2013-06-01 08:32:00,43.0,23.0,-100.00,NNW,348,2.0,4.0,44,-99.99,,,-99.99,,2013-06-01 14:32:00,
2013-06-01 08:42:00,43.0,23.0,-100.00,NNW,348,2.0,4.0,44,-99.99,,,-99.99,,2013-06-01 14:42:00,
2013-06-01 08:52:00,43.0,22.0,-100.00,North,8,2.0,5.0,43,-99.99,,,-99.99,,2013-06-01 14:52:00,
2013-06-01 09:01:00,44.0,24.0,-100.00,NNE,15,2.0,4.0,45,-99.99,,,-99.99,,2013-06-01 15:01:00,
2013-06-01 09:11:00,44.0,24.0,-100.00,NNE,15,2.0,4.0,45,-99.99,,,-99.99,,2013-06-01 15:11:00,
2013-06-01 09:21:00,44.0,23.0,-100.00,North,11,2.0,4.0,44,-99.99,,,-99.99,,2013-06-01 15:21:00,
2013-06-01 09:33:00,44.0,23.0,-100.00,North,350,2.0,4.0,44,-99.99,,,-99.99,,2013-06-01 15:33:00,
2013-06-01 09:43:00,44.0,23.0,-100.00,North,350,2.0,4.0,44,-99.99,,,-99.99,,2013-06-01 15:43:00,
2013-06-01 09:53:00,45.0,24.0,-100.00,NNE,26,1.0,4.0,44,-99.99,,,-99.99,,2013-06-01 15:53:00,
2013-06-01 10:03:00,47.0,25.0,-100.00,NNE,19,2.0,5.0,42,-99.99,,,-99.99,,2013-06-01 16:03:00,
2013-06-01 10:12:00,47.0,25.0,-100.00,NNE,19,2.0,5.0,42,-99.99,,,-99.99,,2013-06-01 16:12:00,
2013-06-01 10:23:00,47.0,24.0,-100.00,NNE,23,2.0,4.0,40,-99.99,,,-99.99,,2013-06-01 16:23:00,
2013-06-01 10:33:00,47.0,24.0,-100.00,NNW,344,2.0,5.0,40,-99.99,,,-99.99,,2013-06-01 16:33:00,
2013-06-01 10:42:00,47.0,24.0,-100.00,NNW,344,2.0,5.0,40,-99.99,,,-99.99,,2013-06-01 16:42:00,
2013-06-01 10:52:00,49.0,25.0,-100.00,NNE,27,2.0,5.0,38,-99.99,,,-99.99,,2013-06-01 16:52:00,
2013-06-01 11:02:00,49.0,23.0,-100.00,NE,55,1.0,4.0,35,-99.99,,,-99.99,,2013-06-01 17:02:00,
2013-06-01 11:11:00,49.0,23.0,-100.00,NE,55,1.0,4.0,35,-99.99,,,-99.99,,2013-06-01 17:11:00,
2013-06-01 11:22:00,50.0,23.0,-100.00,North,7,2.0,4.0,34,-99.99,,,-99.99,,2013-06-01 17:22:00,
2013-06-01 11:32:00,50.0,21.0,-100.00,North,358,1.0,4.0,31,-99.99,,,-99.99,,2013-06-01 17:32:00,
2013-06-01 11:42:00,50.0,21.0,-100.00,North,358,1.0,4.0,31,-99.99,,,-99.99,,2013-06-01 17:42:00,
2013-06-01 11:52:00,51.0,22.0,-100.00,NNE,13,2.0,4.0,32,-99.99,,,-99.99,,2013-06-01 17:52:00,
2013-06-01 12:01:00,51.0,20.0,-100.00,North,0,3.0,6.0,29,-99.99,,,-99.99,,2013-06-01 18:01:00,
2013-06-01 12:12:00,51.0,20.0,-100.00,North,0,3.0,6.0,29,-99.99,,,-99.99,,2013-06-01 18:12:00,
2013-06-01 12:21:00,52.0,22.0,-100.00,NNE,30,2.0,4.0,31,-99.99,,,-99.99,,2013-06-01 18:21:00,
2013-06-01 12:32:00,51.0,19.0,-100.00,NW,325,1.0,3.0,28,-99.99,,,-99.99,,2013-06-01 18:32:00,
2013-06-01 12:41:00,51.0,19.0,-100.00,NW,325,1.0,3.0,28,-99.99,,,-99.99,,2013-06-01 18:41:00,
2013-06-01 12:51:00,53.0,21.0,-100.00,NNE,24,3.0,6.0,28,-99.99,,,-99.99,,2013-06-01 18:51:00,
2013-06-01 13:01:00,54.0,23.0,-100.00,NNE,29,2.0,6.0,30,-99.99,,,-99.99,,2013-06-01 19:01:00,
2013-06-01 13:11:00,54.0,23.0,-100.00,NNE,29,2.0,6.0,30,-99.99,,,-99.99,,2013-06-01 19:11:00,
2013-06-01 13:21:00,53.0,23.0,-100.00,NNE,13,3.0,6.0,31,-99.99,,,-99.99,,2013-06-01 19:21:00,
2013-06-01 13:32:00,55.0,24.0,-100.00,NNE,12,3.0,5.0,30,-99.99,,,-99.99,,2013-06-01 19:32:00,
2013-06-01 13:41:00,55.0,24.0,-100.00,NNE,12,3.0,5.0,30,-99.99,,,-99.99,,2013-06-01 19:41:00,
2013-06-01 13:52:00,56.0,24.0,-100.00,NNE,22,1.0,3.0,29,-99.99,,,-99.99,,2013-06-01 19:52:00,
2013-06-01 14:01:00,56.0,23.0,-100.00,North,8,2.0,4.0,27,-99.99,,,-99.99,,2013-06-01 20:01:00,
2013-06-01 14:11:00,56.0,23.0,-100.00,North,8,2.0,4.0,27,-99.99,,,-99.99,,2013-06-01 20:11:00,
2013-06-01 14:21:00,57.0,22.0,-100.00,ENE,69,1.0,3.0,26,-99.99,,,-99.99,,2013-06-01 20:21:00,
2013-06-01 14:32:00,56.0,21.0,-100.00,NE,38,2.0,6.0,25,-99.99,,,-99.99,,2013-06-01 20:32:00,
2013-06-01 14:41:00,56.0,21.0,-100.00,NE,38,2.0,6.0,25,-99.99,,,-99.99,,2013-06-01 20:41:00,
2013-06-01 14:52:00,56.0,23.0,-100.00,North,358,2.0,4.0,27,-99.99,,,-99.99,,2013-06-01 20:52:00,
2013-06-01 15:01:00,57.0,23.0,-100.00,North,358,2.0,3.0,27,-99.99,,,-99.99,,2013-06-01 21:01:00,
2013-06-01 15:11:00,57.0,23.0,-100.00,North,358,2.0,3.0,27,-99.99,,,-99.99,,2013-06-01 21:11:00,
2013-06-01 15:21:00,59.0,26.0,-100.00,WSW,248,1.0,4.0,28,-99.99,,,-99.99,,2013-06-01 21:21:00,
2013-06-01 15:33:00,58.0,24.0,-100.00,NNW,342,3.0,6.0,27,-99.99,,,-99.99,,2013-06-01 21:33:00,
2013-06-01 15:42:00,58.0,24.0,-100.00,NNW,342,3.0,6.0,27,-99.99,,,-99.99,,2013-06-01 21:42:00,
2013-06-01 15:53:00,58.0,24.0,-100.00,North,5,2.0,5.0,27,-99.99,,,-99.99,,2013-06-01 21:53:00,
2013-06-01 16:03:00,59.0,24.0,-100.00,SW,233,1.0,3.0,26,-99.99,,,-99.99,,2013-06-01 22:03:00,
2013-06-01 16:12:00,59.0,24.0,-100.00,SW,233,1.0,3.0,26,-99.99,,,-99.99,,2013-06-01 22:12:00,
2013-06-01 16:23:00,59.0,24.0,-100.00,NNW,333,1.0,4.0,26,-99.99,,,-99.99,,2013-06-01 22:23:00,
2013-06-01 16:33:00,59.0,23.0,-100.00,WSW,255,2.0,4.0,25,-99.99,,,-99.99,,2013-06-01 22:33:00,
2013-06-01 16:42:00,59.0,23.0,-100.00,WSW,255,2.0,4.0,25,-99.99,,,-99.99,,2013-06-01 22:42:00,
2013-06-01 16:53:00,59.0,28.0,-100.00,North,8,2.0,5.0,30,-99.99,,,-99.99,,2013-06-01 22:53:00,
2013-06-01 17:02:00,58.0,28.0,-100.00,North,9,2.0,5.0,31,-99.99,,,-99.99,,2013-06-01 23:02:00,
2013-06-01 17:11:00,58.0,28.0,-100.00,North,9,2.0,5.0,31,-99.99,,,-99.99,,2013-06-01 23:11:00,
2013-06-01 17:21:00,60.0,28.0,-100.00,NNW,330,1.0,2.0,30,-99.99,,,-99.99,,2013-06-01 23:21:00,
2013-06-01 17:32:00,58.0,31.0,-100.00,North,358,2.0,5.0,35,-99.99,,,-99.99,,2013-06-01 23:32:00,
2013-06-01 17:42:00,58.0,31.0,-100.00,North,358,2.0,5.0,35,-99.99,,,-99.99,,2013-06-01 23:42:00,
2013-06-01 17:52:00,58.0,30.0,-100.00,WNW,292,0.0,1.0,34,-99.99,,,-99.99,,2013-06-01 23:52:00,
2013-06-01 18:02:00,57.0,27.0,-100.00,West,263,1.0,2.0,32,-99.99,,,-99.99,,2013-06-02 00:02:00,
2013-06-01 18:11:00,57.0,27.0,-100.00,West,263,1.0,2.0,32,-99.99,,,-99.99,,2013-06-02 00:11:00,
2013-06-01 18:21:00,59.0,28.0,-100.00,West,259,1.0,2.0,30,-99.99,,,-99.99,,2013-06-02 00:21:00,
2013-06-01 18:32:00,60.0,27.0,-100.00,NNE,27,2.0,3.0,28,-99.99,,,-99.99,,2013-06-02 00:32:00,
2013-06-01 18:41:00,60.0,27.0,-100.00,NNE,27,2.0,3.0,28,-99.99,,,-99.99,,2013-06-02 00:41:00,
2013-06-01 18:51:00,58.0,29.0,-100.00,North,349,1.0,2.0,33,-99.99,,,-99.99,,2013-06-02 00:51:00,
2013-06-01 19:01:00,56.0,33.0,-100.00,NNE,29,1.0,3.0,41,-99.99,,,-99.99,,2013-06-02 01:01:00,
2013-06-01 19:11:00,56.0,33.0,-100.00,NNE,29,1.0,3.0,41,-99.99,,,-99.99,,2013-06-02 01:11:00,
2013-06-01 19:21:00,55.0,33.0,-100.00,North,4,1.0,3.0,44,-99.99,,,-99.99,,2013-06-02 01:21:00,
2013-06-01 19:32:00,54.0,33.0,-100.00,SW,230,0.0,1.0,45,-99.99,,,-99.99,,2013-06-02 01:32:00,
2013-06-01 19:41:00,54.0,33.0,-100.00,SW,230,0.0,1.0,45,-99.99,,,-99.99,,2013-06-02 01:41:00,
2013-06-01 19:52:00,54.0,34.0,-100.00,NNE,15,0.0,1.0,46,-99.99,,,-99.99,,2013-06-02 01:52:00,
2013-06-01 20:01:00,53.0,33.0,-100.00,NW,322,0.0,1.0,47,-99.99,,,-99.99,,2013-06-02 02:01:00,
2013-06-01 20:12:00,53.0,33.0,-100.00,NW,322,0.0,1.0,47,-99.99,,,-99.99,,2013-06-02 02:12:00,
2013-06-01 20:21:00,52.0,34.0,-100.00,SW,220,1.0,1.0,50,-99.99,,,-99.99,,2013-06-02 02:21:00,
2013-06-01 20:32:00,51.0,27.0,-100.00,SSW,203,1.0,1.0,39,-99.99,,,-99.99,,2013-06-02 02:32:00,
2013-06-01 20:41:00,51.0,27.0,-100.00,SSW,203,1.0,1.0,39,-99.99,,,-99.99,,2013-06-02 02:41:00,
2013-06-01 21:02:00,48.0,25.0,-100.00,SSW,197,1.0,1.0,40,-99.99,,,-99.99,,2013-06-02 03:02:00,
2013-06-01 21:21:00,48.0,22.0,-100.00,SSW,205,1.0,1.0,35,-99.99,,,-99.99,,2013-06-02 03:21:00,
2013-06-01 21:33:00,48.0,20.0,-100.00,SSW,205,1.0,2.0,33,-99.99,,,-99.99,,2013-06-02 03:33:00,
2013-06-01 21:43:00,48.0,20.0,-100.00,SSW,205,1.0,2.0,33,-99.99,,,-99.99,,2013-06-02 03:43:00,
2013-06-01 21:52:00,48.0,19.0,-100.00,SSW,202,1.0,1.0,31,-99.99,,,-99.99,,2013-06-02 03:52:00,
2013-06-01 22:02:00,48.0,20.0,-100.00,SSW,200,1.0,1.0,32,-99.99,,,-99.99,,2013-06-02 04:02:00,
2013-06-01 22:13:00,48.0,20.0,-100.00,SSW,200,1.0,1.0,32,-99.99,,,-99.99,,2013-06-02 04:13:00,
2013-06-01 22:23:00,48.0,20.0,-100.00,SSW,193,1.0,1.0,32,-99.99,,,-99.99,,2013-06-02 04:23:00,
2013-06-01 22:33:00,47.0,19.0,-100.00,SSW,196,1.0,2.0,33,-99.99,,,-99.99,,2013-06-02 04:33:00,
2013-06-01 22:42:00,47.0,19.0,-100.00,SSW,196,1.0,2.0,33,-99.99,,,-99.99,,2013-06-02 04:42:00,
2013-06-01 22:52:00,47.0,20.0,-100.00,SSW,194,1.0,1.0,34,-99.99,,,-99.99,,2013-06-02 04:52:00,
2013-06-01 23:02:00,47.0,21.0,-100.00,SSW,207,1.0,2.0,35,-99.99,,,-99.99,,2013-06-02 05:02:00,
2013-06-01 23:11:00,47.0,21.0,-100.00,SSW,207,1.0,2.0,35,-99.99,,,-99.99,,2013-06-02 05:11:00,
2013-06-01 23:22:00,47.0,21.0,-100.00,SSW,198,1.0,2.0,36,-99.99,,,-99.99,,2013-06-02 05:22:00,
2013-06-01 23:32:00,47.0,23.0,-100.00,South,188,1.0,1.0,38,-99.99,,,-99.99,,2013-06-02 05:32:00,
2013-06-01 23:42:00,47.0,23.0,-100.00,South,188,1.0,1.0,38,-99.99,,,-99.99,,2013-06-02 05:42:00,
2013-06-01 23:52:00,47.0,23.0,-100.00,South,187,1.0,2.0,38,-99.99,,,-99.99,,2013-06-02 05:52:00,